• In Hungary
  • List of Countries
  • For 7 days
  • Water Temperature
  • Satellite Maps
  • Weather Map
  • News
  • Weather Widgets
  • user-avatar
    Login

    Hourly Weather Sucre

    Today, 21 October, Sunday

    Time Temperature Precipitation Wind Pressure Humidity
    00:00 +15°C° 0.1 mm 1 mps 541 mmHg 78%
    01:00 +14°C° 0.1 mm 1 mps 541 mmHg 80%
    02:00 +14°C° 0.1 mm 1 mps 540 mmHg 82%
    03:00 +14°C° 0 mm 1 mps 540 mmHg 83%
    04:00 +14°C° 0 mm 1 mps 540 mmHg 84%
    05:00 +13°C° 0 mm 1 mps 540 mmHg 85%
    06:00 +14°C° 0 mm 1 mps 540 mmHg 82%
    07:00 +14°C° 0 mm 1 mps 541 mmHg 79%
    08:00 +15°C° 0 mm 1 mps 541 mmHg 76%
    09:00 +16°C° 0 mm 2 mps 542 mmHg 68%
    10:00 +17°C° 0 mm 2 mps 542 mmHg 60%
    11:00 +19°C° 0 mm 3 mps 543 mmHg 52%
    12:00 +20°C° 0 mm 3 mps 542 mmHg 50%
    13:00 +20°C° 0 mm 4 mps 542 mmHg 47%
    14:00 +21°C° 0 mm 4 mps 542 mmHg 44%
    15:00 +20°C° 0 mm 4 mps 541 mmHg 47%
    16:00 +20°C° 0 mm 4 mps 541 mmHg 51%
    17:00 +19°C° 0 mm 5 mps 540 mmHg 54%
    18:00 +18°C° 0.1 mm 4 mps 541 mmHg 59%
    19:00 +18°C° 0.1 mm 3 mps 541 mmHg 64%
    20:00 +17°C° 0.1 mm 2 mps 541 mmHg 68%
    21:00 +16°C° 0.2 mm 2 mps 541 mmHg 71%
    22:00 +16°C° 0.2 mm 2 mps 541 mmHg 73%
    23:00 +16°C° 0.2 mm 2 mps 541 mmHg 76%

    Tomorrow, 22 October, Monday

    Time Temperature Precipitation Wind Pressure Humidity
    00:00 +15°C° 0.1 mm 2 mps 541 mmHg 78%
    01:00 +15°C° 0.1 mm 1 mps 540 mmHg 80%
    02:00 +15°C° 0.1 mm 1 mps 540 mmHg 82%
    03:00 +14°C° 0 mm 1 mps 540 mmHg 83%
    04:00 +14°C° 0 mm 1 mps 539 mmHg 84%
    05:00 +14°C° 0 mm 1 mps 539 mmHg 86%
    06:00 +15°C° 0 mm 1 mps 540 mmHg 82%
    07:00 +15°C° 0 mm 1 mps 541 mmHg 79%
    08:00 +16°C° 0 mm 1 mps 541 mmHg 76%
    09:00 +17°C° 0.1 mm 2 mps 542 mmHg 69%
    10:00 +18°C° 0.1 mm 2 mps 542 mmHg 62%
    11:00 +20°C° 0.1 mm 3 mps 542 mmHg 55%
    12:00 +20°C° 0.2 mm 3 mps 542 mmHg 52%
    13:00 +21°C° 0.2 mm 4 mps 542 mmHg 49%
    14:00 +22°C° 0.2 mm 4 mps 541 mmHg 46%
    15:00 +21°C° 0.4 mm 5 mps 541 mmHg 49%
    16:00 +21°C° 0.4 mm 5 mps 540 mmHg 53%
    17:00 +20°C° 0.4 mm 6 mps 540 mmHg 56%
    18:00 +19°C° 0.5 mm 5 mps 540 mmHg 61%
    19:00 +18°C° 0.5 mm 3 mps 540 mmHg 66%
    20:00 +17°C° 0.5 mm 2 mps 540 mmHg 71%
    21:00 +17°C° 0.2 mm 2 mps 540 mmHg 73%
    22:00 +16°C° 0.2 mm 2 mps 540 mmHg 75%
    23:00 +16°C° 0.2 mm 2 mps 540 mmHg 77%

    Day after tomorrow, 23 October, Tuesday

    Time Temperature Precipitation Wind Pressure Humidity
    00:00 +16°C° 0 mm 2 mps 540 mmHg 79%
    01:00 +15°C° 0 mm 2 mps 539 mmHg 81%
    02:00 +15°C° 0 mm 2 mps 539 mmHg 82%
    03:00 +15°C° 0.2 mm 2 mps 539 mmHg 83%
    04:00 +14°C° 0.2 mm 1 mps 538 mmHg 84%
    05:00 +14°C° 0.2 mm 1 mps 538 mmHg 85%
    06:00 +15°C° 0.4 mm 1 mps 539 mmHg 82%
    07:00 +15°C° 0.4 mm 1 mps 540 mmHg 78%
    08:00 +16°C° 0.4 mm 1 mps 540 mmHg 75%
    09:00 +17°C° 0.5 mm 2 mps 541 mmHg 69%
    10:00 +18°C° 0.5 mm 2 mps 541 mmHg 63%
    11:00 +19°C° 0.5 mm 3 mps 542 mmHg 56%
    12:00 +20°C° 0.9 mm 3 mps 541 mmHg 55%
    13:00 +20°C° 0.9 mm 4 mps 541 mmHg 54%
    14:00 +20°C° 0.9 mm 4 mps 540 mmHg 54%
    15:00 +20°C° 1.1 mm 4 mps 540 mmHg 57%
    16:00 +19°C° 1.1 mm 4 mps 539 mmHg 60%
    17:00 +18°C° 1.1 mm 4 mps 539 mmHg 63%
    18:00 +17°C° 1.4 mm 4 mps 539 mmHg 68%
    19:00 +17°C° 1.4 mm 3 mps 539 mmHg 73%
    20:00 +16°C° 1.4 mm 2 mps 539 mmHg 78%
    21:00 +15°C° 1.9 mm 2 mps 540 mmHg 80%
    22:00 +15°C° 1.9 mm 1 mps 540 mmHg 82%
    23:00 +15°C° 1.9 mm 1 mps 540 mmHg 85%

    24 October, Wednesday

    Time Temperature Precipitation Wind Pressure Humidity
    00:00 +14°C° 1.1 mm 1 mps 539 mmHg 85%
    01:00 +14°C° 1.1 mm 1 mps 539 mmHg 86%
    02:00 +14°C° 1.1 mm 1 mps 539 mmHg 87%
    03:00 +14°C° 0.4 mm 1 mps 539 mmHg 87%
    04:00 +14°C° 0.4 mm 2 mps 539 mmHg 88%
    05:00 +14°C° 0.4 mm 2 mps 539 mmHg 88%
    06:00 +14°C° 0.2 mm 2 mps 539 mmHg 87%
    07:00 +14°C° 0.2 mm 2 mps 540 mmHg 85%
    08:00 +15°C° 0.2 mm 2 mps 540 mmHg 84%
    09:00 +15°C° 0.2 mm 2 mps 540 mmHg 79%
    10:00 +16°C° 0.2 mm 2 mps 540 mmHg 74%
    11:00 +17°C° 0.2 mm 2 mps 541 mmHg 68%
    12:00 +18°C° 0.3 mm 3 mps 540 mmHg 65%
    13:00 +19°C° 0.3 mm 3 mps 540 mmHg 61%
    14:00 +20°C° 0.3 mm 3 mps 540 mmHg 58%
    15:00 +19°C° 0.8 mm 3 mps 540 mmHg 61%
    16:00 +19°C° 0.8 mm 3 mps 539 mmHg 64%
    17:00 +18°C° 0.8 mm 3 mps 539 mmHg 67%
    18:00 +17°C° 1.2 mm 3 mps 539 mmHg 70%
    19:00 +17°C° 1.2 mm 3 mps 539 mmHg 73%
    20:00 +16°C° 1.2 mm 2 mps 540 mmHg 77%
    21:00 +16°C° 0.6 mm 2 mps 540 mmHg 79%
    22:00 +15°C° 0.6 mm 2 mps 540 mmHg 81%
    23:00 +15°C° 0.6 mm 2 mps 540 mmHg 82%

    25 October, Thursday

    Time Temperature Precipitation Wind Pressure Humidity
    00:00 +15°C° 0.6 mm 1 mps 539 mmHg 83%
    01:00 +15°C° 0.6 mm 1 mps 539 mmHg 84%
    02:00 +14°C° 0.6 mm 1 mps 539 mmHg 85%
    03:00 +14°C° 0.3 mm 1 mps 539 mmHg 85%
    04:00 +14°C° 0.3 mm 1 mps 539 mmHg 86%
    05:00 +14°C° 0.3 mm 1 mps 539 mmHg 86%
    06:00 +14°C° 0.4 mm 1 mps 539 mmHg 84%
    07:00 +15°C° 0.4 mm 1 mps 540 mmHg 82%
    08:00 +15°C° 0.4 mm 1 mps 541 mmHg 80%
    09:00 +16°C° 0.7 mm 2 mps 541 mmHg 75%
    10:00 +17°C° 0.7 mm 2 mps 541 mmHg 70%
    11:00 +18°C° 0.7 mm 2 mps 541 mmHg 66%
    12:00 +18°C° 1.2 mm 3 mps 541 mmHg 65%
    13:00 +18°C° 1.2 mm 3 mps 540 mmHg 64%
    14:00 +19°C° 1.2 mm 3 mps 540 mmHg 63%
    15:00 +18°C° 1.4 mm 3 mps 539 mmHg 65%
    16:00 +18°C° 1.4 mm 3 mps 539 mmHg 67%
    17:00 +17°C° 1.4 mm 2 mps 538 mmHg 69%
    18:00 +17°C° 1.3 mm 2 mps 539 mmHg 73%
    19:00 +16°C° 1.3 mm 2 mps 539 mmHg 76%
    20:00 +15°C° 1.3 mm 2 mps 539 mmHg 79%
    21:00 +15°C° 0.7 mm 2 mps 539 mmHg 81%
    22:00 +15°C° 0.7 mm 2 mps 539 mmHg 82%
    23:00 +14°C° 0.7 mm 1 mps 540 mmHg 83%

    26 October, Friday

    Time Temperature Precipitation Wind Pressure Humidity
    00:00 +14°C° 0.3 mm 1 mps 539 mmHg 84%
    01:00 +14°C° 0.3 mm 1 mps 539 mmHg 85%
    02:00 +14°C° 0.3 mm 1 mps 539 mmHg 85%
    03:00 +14°C° 0.5 mm 1 mps 539 mmHg 86%
    04:00 +14°C° 0.5 mm 1 mps 539 mmHg 86%
    05:00 +14°C° 0.5 mm 1 mps 539 mmHg 87%
    06:00 +14°C° 0.6 mm 1 mps 539 mmHg 86%
    07:00 +14°C° 0.6 mm 1 mps 540 mmHg 85%
    08:00 +14°C° 0.6 mm 1 mps 540 mmHg 84%
    09:00 +14°C° 0.9 mm 2 mps 541 mmHg 82%
    10:00 +14°C° 0.9 mm 2 mps 541 mmHg 80%
    11:00 +15°C° 0.9 mm 2 mps 541 mmHg 79%
    12:00 +15°C° 0.6 mm 2 mps 540 mmHg 78%
    13:00 +14°C° 0.6 mm 3 mps 540 mmHg 77%
    14:00 +14°C° 0.6 mm 3 mps 539 mmHg 76%
    15:00 +14°C° 0.4 mm 3 mps 539 mmHg 76%
    16:00 +14°C° 0.4 mm 3 mps 539 mmHg 76%
    17:00 +14°C° 0.4 mm 3 mps 539 mmHg 76%
    18:00 +15°C° 0.2 mm 2 mps 539 mmHg 79%
    19:00 +14°C° 0.2 mm 2 mps 539 mmHg 81%
    20:00 +14°C° 0.2 mm 2 mps 539 mmHg 84%
    21:00 +14°C° 0.2 mm 2 mps 539 mmHg 85%
    22:00 +13°C° 0.2 mm 2 mps 539 mmHg 86%
    23:00 +13°C° 0.2 mm 2 mps 540 mmHg 87%
    Show more